Tracking 22993 objects as of 11-May-2021
HD Live streaming from Space Station
objects crossing your sky now

AYAME 2 DEB

Track AYAME 2 DEB now!


NORAD ID: 28999
Int'l Code: 1980-018D
Perigee: 10,122.9 km
Apogee: 35,126.4 km
Inclination: 6.7 °
Period: 819.0 minutes
Semi major axis: 28995 km
RCS: 0.631 m2 (medium)
Launch date: February 22, 1980
Source: Japan (JPN)
Launch site: TANEGASHIMA SPACE CENTER (TNSTA)

Note: This is SATELLITE DEBRIS
aabbcc
Your satellite tracking list
Your tracking list is empty




NASA's NSSDC Master Catalog

Two Line Element Set (TLE):
1 28999U 80018D   21129.47877182 -.00000094  00000-0  00000-0 0  9997
2 28999   6.6694 189.3208 4311600   7.8321 357.3684  1.75834592 99869
Source of the keplerian elements: AFSPC